Theta_e
317 324 326 325 320 321 315 312 313 311 310 312 312 312 312 314 317 318 315 310 310 309 306 304 303 301 300 299 299 299 298 298 297 296 296 294 293 290 289 289 289 289 290 290
318 327 326 324 321 317 318 321 321 316 314 313 316 315 313 313 315 317 315 311 309 308 305 303 302 301 300 299 299 298 298 297 296 296 295 293 292 289 289 288 288 289 289 288
328 326 323 325 325 321 320 322 321 319 317 314 313 315 312 310 313 315 314 312 309 307 306 304 302 300 300 299 298 298 297 297 296 295 293 291 290 289 289 288 287 287 287 287
326 325 323 324 326 324 328 322 321 321 320 324 312 318 313 312 313 313 313 311 308 307 306 305 302 301 300 299 298 297 297 296 295 293 291 291 291 290 288 287 286 286 286 286
325 321 324 326 325 323 325 319 319 319 319 317 318 315 315 311 312 312 313 310 309 308 307 305 303 301 300 298 297 297 296 295 293 292 292 291 288 288 287 286 286 286 286 286
324 321 320 322 322 321 320 319 316 313 316 321 319 316 319 313 313 313 312 311 310 308 306 305 303 301 299 298 296 295 294 293 292 292 291 288 288 287 287 286 286 286 286 285
325 324 323 321 323 322 320 322 330 324 321 323 317 316 318 314 313 313 313 312 310 308 306 305 303 300 298 296 295 294 293 291 291 291 288 286 286 286 285 285 285 284 285 284
328 329 325 322 322 324 325 326 329 330 323 321 314 318 318 311 311 311 310 313 311 307 306 305 303 301 298 296 295 294 292 291 290 288 286 285 286 285 284 284 284 283 283 283
328 327 322 321 322 322 323 327 323 325 321 325 320 315 312 311 312 310 311 310 309 307 306 305 303 301 299 296 295 294 292 290 289 286 285 285 285 284 284 283 282 282 282 281
325 327 324 321 319 322 324 322 325 323 331 330 325 322 323 313 313 312 310 310 308 306 306 304 303 301 298 296 294 293 292 290 288 286 285 285 284 284 283 282 281 281 281 280
322 323 324 325 325 325 325 326 324 323 325 328 327 327 314 313 313 313 312 308 307 305 305 304 302 299 297 295 293 292 291 289 287 285 285 284 284 283 282 281 281 281 281 280
321 323 324 325 320 318 320 327 319 325 326 324 326 330 312 312 312 312 311 307 305 305 304 302 298 297 294 292 291 291 290 288 287 286 284 284 283 282 281 280 280 281 281 280
316 321 325 324 320 320 320 321 317 317 314 322 325 327 312 311 312 310 309 307 304 303 302 301 297 293 292 290 290 290 289 288 287 284 284 283 283 282 280 279 280 280 281 281
315 316 318 321 319 317 318 319 320 321 323 323 323 321 316 314 314 312 309 307 305 302 300 299 298 296 292 290 288 288 288 287 286 284 283 283 282 281 279 279 280 280 281 281
315 318 315 316 314 315 317 318 317 319 318 323 321 319 318 316 317 316 311 306 304 302 300 299 298 295 292 290 288 287 287 286 284 283 283 282 281 279 278 278 279 280 280 280
312 314 314 314 314 315 316 315 316 317 316 319 319 320 315 313 315 313 309 307 305 304 301 299 297 294 292 290 288 287 285 284 284 283 282 282 280 279 278 279 279 279 279 278
310 312 313 313 314 316 319 315 315 314 315 316 317 316 313 311 312 312 310 308 308 306 303 300 297 295 293 290 288 287 285 283 282 282 282 281 280 278 277 278 279 279 278 277
309 310 313 317 315 318 313 310 313 314 314 313 313 312 311 310 310 311 310 308 307 306 305 303 299 295 292 290 288 286 284 282 282 281 281 280 278 277 277 278 278 278 277 277
309 309 311 315 316 313 310 310 312 313 313 312 312 312 310 307 307 309 307 306 307 305 303 300 296 293 291 288 287 285 283 283 282 281 281 279 277 277 277 278 278 278 278 278
308 307 307 308 311 311 310 307 308 309 313 310 310 311 310 307 312 315 305 304 303 299 297 295 293 291 288 287 286 284 284 282 282 282 281 279 278 277 277 278 278 278 278 278
310 309 310 310 311 311 309 307 308 313 312 308 308 309 307 310 312 308 302 300 299 294 291 290 289 288 286 285 285 283 282 282 281 281 281 280 279 279 278 278 278 277 277 277
309 310 311 311 311 310 308 307 311 311 307 306 306 307 305 304 299 298 298 296 295 293 290 289 287 285 284 284 284 282 282 282 281 281 280 280 279 280 279 278 278 278 277 277
309 308 309 309 309 308 307 307 308 305 306 306 306 305 304 300 298 299 298 297 295 293 290 288 286 284 283 284 284 283 282 282 281 280 280 280 280 280 280 279 278 279 278 279
308 308 309 308 307 307 307 307 306 305 306 305 304 304 302 302 299 299 298 296 295 291 289 287 285 284 282 283 284 285 284 282 280 280 280 280 280 280 280 280 280 280 279 279
305 306 306 307 306 307 307 305 307 307 305 303 302 302 302 302 300 299 298 296 294 291 288 288 288 287 284 283 284 285 284 281 280 280 280 280 281 281 280 281 281 281 280 280
305 307 308 309 307 308 307 306 305 305 304 303 303 301 301 301 302 299 298 296 292 290 288 288 288 288 285 284 283 283 282 281 281 281 281 281 281 281 281 280 280 280 280 280
Wind_Speed
5 8 14 24 19 17 6 5 9 6 3 4 8 9 11 18 18 16 18 19 21 20 19 21 21 20 20 19 19 17 16 14 13 9 5 3 3 4 7 9 11 13 14 14
4 17 21 16 13 15 16 19 19 14 14 8 16 18 12 18 24 25 25 23 21 19 18 21 22 22 22 22 20 18 15 14 12 9 8 5 5 4 6 8 11 12 12 12
17 11 20 14 15 13 15 17 14 15 9 11 11 18 12 10 15 19 18 19 18 22 22 20 25 24 22 22 22 19 16 13 11 10 9 7 5 4 3 6 8 10 10 10
15 18 9 14 17 17 20 14 18 16 8 8 6 10 10 11 19 20 20 20 21 23 22 21 27 27 26 23 21 19 17 14 12 10 7 6 5 4 2 3 5 5 10 9
11 8 17 22 23 15 13 9 14 14 12 10 14 9 6 11 14 20 22 22 23 24 24 24 28 30 26 23 22 20 18 15 12 9 7 6 6 6 4 3 6 8 8 9
22 11 8 15 14 18 6 6 4 3 4 10 14 12 18 12 15 17 21 23 25 24 24 22 30 28 26 23 23 22 18 14 12 10 8 7 7 6 5 6 8 7 6 7
14 27 20 11 9 6 15 9 3 4 6 10 10 13 22 2 10 13 19 22 21 21 22 22 21 27 27 27 24 21 18 14 13 10 9 8 7 7 7 6 6 7 6 9
8 5 21 15 23 14 16 17 6 9 8 6 5 12 8 2 1 1 5 13 15 19 20 23 22 30 30 29 26 22 19 16 14 11 9 7 7 6 6 5 5 4 7 9
7 7 4 10 18 17 8 15 13 3 1 2 6 6 5 3 4 1 4 9 16 20 21 22 23 30 30 29 28 25 21 17 15 12 9 8 6 6 5 4 3 4 8 9
6 10 3 2 5 21 18 12 6 4 7 8 9 7 7 1 7 6 6 9 12 16 19 19 19 27 28 27 26 24 22 19 17 13 10 8 7 6 5 3 4 5 7 8
11 9 2 3 8 16 11 14 4 3 4 7 7 5 4 3 6 8 2 6 11 15 17 17 17 24 26 25 25 24 23 21 17 13 10 9 8 6 5 4 4 5 5 8
3 3 4 7 2 5 7 7 9 5 6 5 6 5 2 5 3 5 3 6 9 12 16 17 16 25 25 27 29 30 24 21 18 14 12 10 9 7 5 4 5 5 5 6
1 1 3 3 2 2 6 2 7 5 2 6 5 3 1 4 6 2 5 8 9 11 14 15 15 17 22 24 29 29 28 24 20 17 14 12 10 8 6 5 6 6 5 5
5 3 4 2 3 1 2 6 6 2 3 6 5 3 2 4 1 4 4 8 10 12 13 14 15 16 21 23 27 29 27 25 22 19 16 14 12 10 8 7 7 6 6 5
4 4 5 6 8 6 3 8 7 5 5 5 3 12 11 6 6 8 3 8 11 12 14 15 16 15 22 23 23 25 26 26 23 21 18 16 14 11 9 9 8 7 7 7
4 3 5 6 14 13 7 14 13 12 13 14 15 22 10 4 9 7 9 12 12 13 14 14 14 16 22 26 25 23 22 26 24 22 20 18 16 14 12 11 10 9 10 10
2 4 3 10 5 7 9 16 14 11 14 16 13 18 5 6 12 12 11 13 15 15 15 16 18 18 23 27 27 26 24 25 23 23 22 19 18 16 14 12 13 13 12 12
5 2 3 4 4 8 1 3 11 15 17 16 14 11 11 10 11 9 8 13 14 14 15 15 14 20 23 25 26 24 24 23 21 20 23 21 19 18 17 16 16 15 14 14
13 5 3 5 5 6 10 4 6 7 8 15 18 14 9 4 0 5 7 7 9 7 7 12 20 23 24 26 27 27 25 23 22 22 22 21 23 22 20 19 17 15 14 13
16 15 8 5 8 6 0 4 2 4 12 8 12 14 13 9 7 7 6 6 6 6 11 18 22 22 25 27 28 29 26 25 25 24 23 23 22 21 22 20 18 16 14 13
5 7 14 13 10 7 9 3 6 9 5 5 7 6 8 7 10 1 8 5 7 9 16 22 23 23 26 31 31 28 28 27 28 25 23 23 22 20 20 19 14 14 11 10
11 7 6 8 9 15 8 5 13 8 4 4 3 3 6 3 3 4 5 8 11 13 17 19 21 20 27 32 32 27 27 29 29 29 28 28 26 21 20 18 15 12 11 9
6 7 4 6 5 3 5 10 7 3 3 4 2 4 6 5 4 5 9 11 11 11 16 16 19 21 23 29 30 28 29 29 30 29 28 28 25 21 21 19 17 14 11 8
5 5 4 0 7 11 14 12 8 5 6 4 3 5 8 7 8 5 8 9 10 11 13 14 18 17 18 25 26 25 30 31 32 30 28 27 27 21 20 18 16 14 13 11
3 10 6 6 7 7 9 11 8 6 5 5 3 5 9 8 12 9 8 10 9 13 15 16 17 18 19 22 25 22 29 32 27 24 24 21 21 21 20 18 16 15 13 13
5 7 5 6 7 4 5 8 6 5 7 6 7 6 6 8 13 11 9 9 11 12 14 14 14 16 19 20 20 21 26 27 25 22 21 21 20 19 18 16 12 14 12 13
Wind_Direction
189 191 201 221 215 233 236 230 246 261 272 238 234 245 234 191 207 204 197 192 190 187 177 177 175 169 164 163 163 165 167 171 174 168 167 153 121 78 51 40 33 29 23 15
173 223 220 228 213 219 237 255 262 277 261 249 266 263 262 187 208 204 197 198 193 179 177 177 178 176 176 170 169 169 173 173 178 183 177 164 160 101 54 37 30 24 19 14
219 226 215 219 224 220 231 236 250 248 283 257 269 265 239 210 221 213 213 206 194 188 179 181 182 181 178 175 176 174 172 170 173 168 154 138 109 85 52 25 25 23 20 15
241 233 215 213 229 213 243 224 243 251 258 263 210 281 231 205 207 206 206 197 193 190 188 182 184 183 183 181 176 175 173 173 169 159 158 152 139 137 92 50 25 24 23 16
208 190 215 232 237 208 246 207 212 231 241 271 242 273 237 200 210 211 210 202 196 192 187 185 185 183 181 175 175 174 175 175 166 156 153 143 133 130 118 67 40 31 18 16
256 276 217 234 237 214 203 200 189 179 223 253 228 220 262 208 211 214 214 206 200 191 188 182 180 177 174 172 174 176 174 170 165 166 157 149 149 128 95 48 36 22 9 8
250 243 242 222 243 204 192 190 223 225 203 250 180 210 253 264 210 205 205 210 202 189 182 176 172 172 170 172 172 173 171 166 172 166 160 155 123 87 67 50 39 23 6 17
219 250 210 199 218 207 190 193 200 217 215 265 190 235 241 6 358 257 250 221 186 184 182 178 173 173 169 171 172 171 171 170 172 174 166 141 106 94 77 58 46 27 28 25
208 245 218 213 209 204 181 214 198 226 354 276 231 269 242 277 232 232 229 174 181 181 180 177 174 171 170 171 173 172 173 171 176 177 159 134 124 109 87 67 57 50 40 28
269 285 227 191 200 225 213 170 185 189 203 230 228 263 247 267 262 208 214 195 173 175 175 174 172 169 169 170 171 174 176 174 176 171 158 145 143 118 101 93 77 69 52 37
252 258 245 279 214 220 210 224 161 191 234 233 250 235 214 255 292 290 234 189 173 171 173 167 165 164 162 166 170 173 174 176 172 168 160 159 145 132 134 121 97 85 67 47
5 191 230 237 317 338 267 237 172 200 192 240 275 228 197 282 256 236 238 179 183 177 170 164 153 156 157 161 167 173 176 175 174 166 167 162 155 150 142 127 116 105 90 66
283 30 267 245 320 214 271 268 183 148 128 183 170 273 317 16 38 68 173 174 170 170 166 160 155 157 159 162 165 175 179 178 170 168 169 163 162 159 154 144 126 118 105 86
120 153 187 286 13 12 237 264 230 191 190 157 228 265 230 91 117 148 157 170 163 168 167 169 169 172 169 165 167 175 178 180 173 173 172 167 165 162 155 145 137 128 112 95
106 210 196 220 224 286 314 290 241 236 219 225 257 232 260 239 310 345 156 158 162 170 181 185 178 173 172 171 175 178 178 177 177 176 174 168 164 160 153 144 142 127 115 103
322 257 218 263 255 233 229 241 246 250 253 243 250 261 235 180 221 214 190 175 187 188 189 185 182 177 181 179 174 172 173 178 178 178 173 168 165 163 160 147 133 127 117 111
255 290 210 264 220 230 244 235 222 233 234 224 227 249 158 194 224 227 192 190 195 196 183 185 190 188 183 180 174 174 172 173 175 177 173 170 169 166 158 147 142 136 129 123
234 231 294 305 159 218 274 338 229 218 236 230 244 244 201 204 211 225 205 199 195 194 191 191 180 178 177 174 174 167 169 170 169 171 172 173 170 162 155 149 146 140 133 124
206 201 251 271 264 305 292 207 185 180 247 231 240 246 221 180 64 266 207 188 196 165 158 162 165 165 171 172 169 166 167 169 171 172 172 171 169 162 157 153 150 145 139 129
203 212 198 247 278 280 164 272 154 143 271 243 211 235 207 157 218 235 168 158 144 124 145 144 149 155 157 166 168 164 167 172 178 176 172 169 167 166 163 160 155 149 142 133
188 202 210 217 241 255 235 195 165 183 238 248 224 235 159 195 222 118 135 130 129 130 131 140 145 153 160 163 163 162 166 179 178 169 167 168 171 169 166 161 158 153 146 140
191 193 204 215 225 257 166 148 207 224 199 200 186 210 207 177 146 130 109 132 137 136 138 144 140 147 162 167 168 165 176 183 182 177 171 173 173 170 168 167 163 159 153 146
220 220 202 214 222 301 307 292 233 197 216 206 197 214 182 164 182 158 149 151 152 147 142 144 142 143 160 171 177 171 181 179 178 176 175 176 176 174 176 174 171 169 169 164
225 165 186 165 251 267 280 255 247 218 231 232 204 186 183 176 159 152 151 149 142 141 146 149 144 145 157 175 183 187 177 176 175 174 174 177 174 174 177 181 185 185 186 186
177 154 180 246 277 294 265 249 243 232 248 220 164 188 192 167 167 159 161 163 154 150 152 158 162 162 168 174 181 181 176 175 168 171 172 171 175 178 180 185 189 197 205 200
190 174 186 226 209 178 271 296 248 199 231 200 166 157 165 167 168 165 166 163 155 152 156 159 161 159 166 170 171 171 173 173 167 166 170 174 175 178 180 183 185 203 219 216